Location: Ebersheim
(48.3033°N, 7.4991°E)
Time: 15:10:11
(UTC+00:00)

Daily predictions for brighter satellites

Satellite Brightness Start Highest point End
(mag) Time Altitude Azimuth Time Altitude Azimuth Time Altitude Azimuth
Cosmos 1833 4.3 17:31:57 10° NNW 17:37:45 80° ENE 17:43:29 10° SSE
CSL-04 Rocket 3.8 17:32:54 10° SE 17:38:15 54° ENE 17:43:33 10° N
STARLINK-1034 3.7 17:35:35 10° WSW 17:39:44 88° NNW 17:43:54 10° ENE
STARLINK-70 4.3 17:36:06 10° W 17:40:01 46° N 17:43:55 10° ENE
STARLINK-76 4.3 17:37:39 10° W 17:41:32 46° N 17:45:27 10° ENE
ATLAS 3B R/B 4.2 17:36:49 10° NW 17:41:50 22° N 17:46:55 10° ENE
Cosmos 44 4.4 17:37:46 10° NW 17:41:58 44° WSW 17:46:18 10° SSE
CZ-2D R/B 3.5 17:39:24 10° SE 17:43:08 47° ENE 17:46:53 10° N
STARLINK-1014 3.9 17:39:44 10° W 17:43:09 46° NNW 17:46:35 10° ENE
STARLINK-23 4.3 17:39:18 10° W 17:43:12 46° N 17:47:06 10° ENE
STARLINK-1068 3.7 17:40:34 10° WSW 17:44:43 83° NNW 17:48:52 10° ENE
STARLINK-32 4.3 17:40:57 10° W 17:44:50 46° N 17:48:45 10° ENE
STARLINK-80 3.9 17:41:07 10° WNW 17:44:50 47° NNE 17:48:33 10° E
CZ-2C R/B 4.5 17:41:37 10° ESE 17:45:50 22° ENE 17:49:58 10° NNE
STARLINK-40 4.3 17:42:37 10° W 17:46:31 45° N 17:50:25 10° ENE
STARLINK-1061 4.4 17:42:48 10° SSW 17:46:33 35° SE 17:50:20 10° ENE
CZ-4 R/B 1.4 17:42:32 10° SSE 17:46:43 83° ENE 17:50:51 10° NNW
STARLINK-44 4.3 17:44:18 10° W 17:48:11 45° N 17:52:05 10° ENE
Lacrosse 4 Rocket 4.0 17:45:31 10° W 17:48:30 18° NW 17:51:31 10° N
STARLINK-37 4.3 17:46:06 10° W 17:49:58 44° N 17:53:52 10° ENE
NOSS 7 (D) 4.0 17:47:13 10° NW 17:50:08 78° NE 17:53:22 10° SE
Cosmos 1633 Rocket 3.5 17:46:20 10° SSW 17:50:38 66° WNW 17:54:58 10° N
YAOGAN 1 2.5 17:46:36 10° SSE 17:50:54 73° ENE 17:55:14 10° N
CRYOSAT 2 4.5 17:46:33 10° SSE 17:51:19 54° E 17:56:06 10° N
STARLINK-36 4.3 17:47:36 10° W 17:51:29 44° N 17:55:22 10° ENE
STARLINK-1067 4.3 17:47:42 10° SSW 17:51:31 37° SE 17:55:20 10° ENE
STARLINK-64 4.2 17:48:20 10° WNW 17:51:43 38° N 17:55:07 10° ENE
Cosmos 2263 4.3 17:46:33 10° SSW 17:52:20 88° ESE 17:58:08 10° NNE
STARLINK-33 4.1 17:50:01 10° WNW 17:53:04 34° N 17:56:01 11° ENE
STARLINK-68 4.3 17:49:30 10° W 17:53:22 43° N 17:57:15 10° ENE
Ariane Rocket 3.7 17:49:27 10° SE 17:54:00 34° ENE 17:58:35 10° N
STARLINK-55 4.1 17:51:25 10° WNW 17:54:27 34° N 17:57:20 11° ENE
STARLINK-1060 3.7 17:50:32 10° WSW 17:54:41 75° NNW 17:58:50 10° ENE
STARLINK-63 4.3 17:51:04 10° W 17:54:56 43° N 17:58:47 10° ENE
STARLINK-66 4.1 17:52:18 10° WNW 17:55:20 34° N 17:58:12 11° ENE
STARLINK-28 4.1 17:53:02 10° WNW 17:56:05 34° N 17:58:52 12° ENE
STARLINK-1058 4.2 17:52:35 10° SSW 17:56:28 40° SE 18:00:06 11° ENE
STARLINK-35 4.3 17:52:37 10° W 17:56:29 44° N 18:00:16 10° ENE
NOSS 2-3 (C) 3.9 17:52:15 10° SW 17:56:38 82° NW 18:01:57 10° NE
USA 116 4.1 17:52:35 10° NNE 17:56:44 58° ESE 18:01:22 10° S
STARLINK-42 4.1 17:53:53 10° WNW 17:56:53 34° N 17:59:38 12° ENE
Cosmos 990 Rocket 4.1 17:52:23 10° NNW 17:57:25 52° ENE 18:02:26 10° SE
FREGAT/IRIS 4.3 17:57:40 13° ENE 17:58:04 13° ENE 17:59:24 10° NE
STARLINK-51 4.3 17:54:17 10° W 17:58:09 43° N 18:01:52 11° ENE
STARLINK-1029 3.9 17:55:55 10° W 17:58:55 38° N 18:01:47 11° ENE
STARLINK-1007 4.1 17:56:30 10° WNW 17:59:40 37° N 18:02:38 11° ENE
STARLINK-1030 3.8 17:55:34 10° WSW 17:59:41 72° NNW 18:03:43 11° ENE
STARLINK-30 4.3 17:55:57 10° W 17:59:49 43° N 18:03:27 11° ENE
Cosmos 1943 Rocket 3.1 17:54:55 10° SW 18:00:19 50° NW 18:05:43 10° NNE
CSL-04 Debris 4.2 17:54:57 10° SSE 18:00:25 82° ENE 18:05:57 10° NNW
Cosmos 2297 Rocket 3.5 17:57:01 10° N 18:01:22 22° NE 18:04:59 13° E
STARLINK-1043 4.1 17:57:29 10° SW 18:01:25 43° SE 18:04:53 13° ENE
STARLINK-72 4.3 17:57:38 10° W 18:01:29 43° N 18:05:03 12° ENE
Cosmos 1933 Rocket 3.5 17:57:15 10° S 18:01:36 67° E 18:05:58 10° NNE
SKYMED 2 3.9 17:57:30 10° N 18:01:51 72° WNW 18:06:10 10° SSW
STARLINK-50 4.4 17:59:17 10° W 18:03:09 43° N 18:06:39 12° ENE
STARLINK-1020 3.8 18:00:32 10° WSW 18:04:40 68° NNW 18:08:29 12° ENE
NOSS 2 (A) 4.1 18:02:12 10° NW 18:04:45 55° NE 18:06:38 14° SE
Nadezhda 4 Rocket 4.5 17:58:59 10° N 18:04:51 38° ENE 18:10:42 10° SE
STARLINK-59 4.4 18:01:04 10° WNW 18:04:55 42° N 18:08:19 13° ENE
STARLINK-1065 4.0 18:02:14 10° SW 18:06:12 46° SE 18:09:29 14° ENE
STARLINK-56 4.4 18:02:38 10° WNW 18:06:29 42° N 18:09:50 13° ENE
STARLINK-73 4.4 18:04:17 10° WNW 18:08:08 42° N 18:11:25 14° ENE
Cosmos 1340 3.0 18:04:40 10° SSW 18:08:25 68° WNW 18:12:11 10° N
NOAA 11 4.4 18:03:32 10° S 18:08:58 79° WSW 18:14:25 10° NNW
STARLINK-1010 4.1 18:05:56 10° WNW 18:09:00 35° N 18:11:28 14° ENE
Cosmos 1346 Rocket 2.8 18:05:27 10° SSW 18:09:25 86° WNW 18:13:23 10° N
STARLINK-1052 3.9 18:05:32 10° WSW 18:09:39 65° NNW 18:13:16 13° ENE
STARLINK-38 4.4 18:05:59 10° WNW 18:09:50 42° N 18:13:02 14° ENE
STARLINK-1063 3.9 18:07:18 10° SW 18:11:18 50° SE 18:14:25 16° ENE
STARLINK-65 4.4 18:07:37 10° WNW 18:11:28 42° N 18:14:36 14° ENE
STARLINK-1047 3.9 18:07:51 10° WSW 18:11:59 63° NNW 18:15:32 14° ENE
Cosmos 1937 Rocket 3.7 18:07:03 10° NNW 18:12:12 51° ENE 18:17:14 10° SE
Cosmos 1464 Rocket 4.2 18:06:16 10° SSE 18:12:24 53° E 18:18:35 10° NNE
STARLINK-53 4.4 18:09:24 10° WNW 18:13:14 42° N 18:16:17 15° ENE
Genesis I 4.0 18:11:23 10° NNW 18:14:56 33° NE 18:17:06 19° E
ADEOS Rocket 3.6 18:07:53 10° NNE 18:15:41 67° ESE 18:23:12 10° S
STARLINK-1064 3.8 18:12:14 10° SW 18:16:16 54° SE 18:19:12 18° ENE
USA 238 DEB 4.3 18:09:36 10° NW 18:16:20 43° NE 18:21:52 16° E
USA 238 4.3 18:09:42 10° NW 18:16:25 43° NE 18:21:56 16° E
Meteor 2-11 Rocket 4.5 18:12:44 10° S 18:18:40 56° E 18:24:35 10° NNE
STARLINK-1033 4.0 18:15:32 10° W 18:19:38 60° NNW 18:22:50 16° ENE
DMSP B5D1-3 4.5 18:15:12 10° NNE 18:20:22 71° ESE 18:25:30 10° S
Cosmos 2227 Rocket 3.3 18:16:00 10° N 18:20:40 25° NE 18:23:26 18° E
Meteor 1-20 Rocket 4.1 18:15:31 10° S 18:20:59 74° E 18:26:35 10° NNE
STARLINK-1041 3.7 18:17:11 10° SW 18:21:14 58° SSE 18:23:59 20° ENE
Cosmos 1656 Rocket 3.8 18:19:09 10° SSW 18:24:41 79° WNW 18:30:22 10° NNE
Cosmos 2221 Rocket 4.3 18:21:14 10° N 18:25:20 33° ENE 18:28:33 15° SE
STARLINK-1038 3.7 18:22:06 10° SW 18:26:11 62° SSE 18:28:45 22° ENE
STARLINK-1024 4.1 18:25:34 10° W 18:29:39 55° NNW 18:32:25 19° ENE
H-2A R/B 2.4 18:25:49 10° SE 18:31:01 50° ENE 18:36:17 10° N
STARLINK-1046 3.6 18:27:04 10° SW 18:31:10 66° SSE 18:33:33 24° ENE
STARLINK 1040 4.0 18:29:12 10° WNW 18:31:44 29° N 18:32:39 23° NE
Cosmos 2034 Rocket 4.0 18:28:58 10° SSE 18:34:56 56° E 18:40:56 10° NNE
STARLINK-22 4.0 18:31:56 10° WNW 18:35:02 36° N 18:36:16 26° NE
STARLINK-1039 3.6 18:32:03 10° SW 18:36:10 71° SSE 18:38:22 27° ENE
STARLINK-41 4.0 18:33:26 10° WNW 18:36:31 36° N 18:37:41 27° NE
STARLINK-1016 4.2 18:34:09 10° WNW 18:37:20 35° N 18:38:43 24° NE
Cosmos 220 Rocket 3.9 18:33:39 10° S 18:37:53 60° ESE 18:42:06 10° NNE
Meteor 1-18 Rocket 4.3 18:32:29 10° NNW 18:38:25 87° W 18:44:14 10° S
STARLINK-1008 4.2 18:35:49 10° WNW 18:39:01 35° N 18:40:20 25° NE
COSMOS 2487 4.3 18:36:15 10° NW 18:39:23 33° WSW 18:42:29 10° S
STARLINK-1032 4.2 18:35:35 10° W 18:39:39 52° NNW 18:41:59 23° NE
STARLINK-75 3.9 18:37:46 10° WNW 18:40:58 39° N 18:41:58 30° NE
STARLINK-1045 3.5 18:37:00 10° SW 18:41:08 76° SSE 18:43:08 29° ENE
STARLINK-58 4.1 18:38:42 10° WNW 18:42:04 38° N 18:43:17 28° NE
STARLINK-24 4.3 18:38:16 10° WNW 18:42:07 41° N 18:43:52 26° NE
STARLINK-1025 4.2 18:40:01 10° WNW 18:43:11 35° N 18:44:21 27° NE
STARLINK-62 4.1 18:40:26 10° WNW 18:43:48 39° N 18:44:55 30° NE
STARLINK-43 3.8 18:40:56 10° WNW 18:44:33 54° SSW 18:46:22 26° SSE
STARLINK-1011 4.2 18:40:35 10° W 18:44:37 50° NNW 18:46:45 25° NE
STARLINK-1017 4.2 18:42:06 10° WNW 18:45:18 35° N 18:46:21 28° NE
STARLINK-34 4.1 18:42:03 10° WNW 18:45:25 39° N 18:46:29 31° NE
Timation 2 Rocket 4.3 18:38:57 10° NNW 18:45:52 80° WSW 18:52:43 10° SSE
HJ-1C 3.9 18:42:49 10° S 18:46:04 60° W 18:49:21 10° NNW
STARLINK-1050 3.5 18:42:00 10° WSW 18:46:09 82° SSE 18:47:59 32° ENE
STARLINK-1035 4.3 18:42:15 10° W 18:46:23 49° NNW 18:48:33 25° NE
Lacrosse 5 rocket 2.3 18:42:09 10° NW 18:46:30 41° NNE 18:48:11 29° ENE
Okean 1 3.5 18:42:32 10° NNW 18:46:33 71° W 18:50:30 10° S
STARLINK-1031 4.3 18:42:38 10° W 18:46:37 47° NNW 18:48:37 26° NE
Okean 1-7 3.5 18:43:18 10° NNW 18:47:36 64° W 18:51:54 10° S
Cosmos 468 Rocket 4.0 18:42:21 10° SSW 18:47:39 90° NW 18:53:01 10° NNE
Cosmos 2219 3.4 18:43:44 10° NNW 18:49:22 51° NE 18:52:15 27° ESE
STARLINK-1036 4.3 18:45:35 10° W 18:49:37 49° NNW 18:51:32 27° NE
STARLINK-1055 3.5 18:46:58 10° WSW 18:51:07 87° SSE 18:52:45 36° ENE
STARLINK-1048 4.1 18:48:28 10° WNW 18:51:41 36° N 18:52:29 31° NE
Cosmos 192 4.4 18:47:14 10° SSW 18:52:09 81° WNW 18:57:05 10° NNE
Cosmos 405 4.3 18:49:02 10° NNW 18:52:25 42° W 18:55:46 10° SSW
Cosmos 1092 Rocket 4.1 18:46:36 10° N 18:52:51 54° ENE 18:58:47 11° SSE
STARLINK-81 4.3 18:49:01 10° WNW 18:52:51 42° N 18:54:10 31° NE
Lacrosse 5 1.9 18:48:14 10° SW 18:53:15 62° SE 18:55:38 30° ENE
MOS 1 4.2 18:48:01 10° SSE 18:53:40 78° ENE 18:59:20 10° NNW
STARLINK-1049 4.1 18:50:37 10° WNW 18:53:49 36° N 18:54:32 32° NNE
STARLINK-1044 4.3 18:50:37 10° W 18:54:38 48° N 18:56:20 29° NE
STARLINK-54 4.3 18:50:53 10° WNW 18:54:44 42° N 18:55:56 33° NE
STARLINK-1051 4.1 18:52:47 10° WNW 18:56:01 36° N 18:56:37 33° NNE
STARLINK-1022 3.5 18:51:56 10° WSW 18:56:06 89° NNW 18:57:31 40° ENE
STARLINK-77 4.3 18:52:20 10° WNW 18:56:11 42° N 18:57:20 33° NE
Meteor 2-4 Rocket 3.8 18:50:58 10° N 18:56:55 71° ENE 19:02:50 10° SSE
STARLINK-1027 4.4 18:52:59 10° W 18:57:07 46° N 18:58:47 30° NE
STARLINK-1028 4.1 18:54:28 10° WNW 18:57:41 36° N 18:58:14 34° NNE
STARLINK-25 4.3 18:53:59 10° WNW 18:57:51 42° N 18:58:55 34° NE
Meteor 1-14 Rocket 4.2 18:52:35 10° SSW 18:58:07 85° W 19:03:46 10° N
Cosmos 2263 Rocket 4.3 18:56:38 10° N 18:58:36 12° NNE 18:59:45 11° NE
Cosmos 1634 Rocket 4.4 18:52:59 10° SSE 18:58:46 39° E 19:04:34 10° NNE
USA 234 4.0 18:55:21 21° ENE 18:59:21 42° N 19:05:25 10° WNW
STARLINK-71 4.3 18:55:52 10° WNW 18:59:44 43° N 19:00:42 36° NE
STARLINK-1021 4.0 18:56:40 10° WNW 18:59:54 37° N 19:00:21 35° NNE
GP-B 4.4 19:01:33 24° NE 19:01:33 24° NE 19:03:54 10° NNE
Gbstr 26 Del rocket 3.0 18:56:09 10° WSW 19:00:17 88° NNW 19:02:07 37° ENE
STARLINK-1042 3.5 18:56:56 10° WSW 19:01:06 84° NNW 19:02:20 44° ENE
STARLINK-79 4.3 18:57:19 10° WNW 19:01:11 43° N 19:02:07 36° NE
Cosmos 1814 Rocket 4.0 18:56:36 10° S 19:01:32 51° ESE 19:06:32 10° NNE
STARLINK-1019 4.0 18:58:52 10° WNW 19:02:07 37° N 19:02:28 36° NNE
Cosmos 2369 Rocket 4.2 18:57:36 10° WSW 19:02:20 26° NW 19:07:07 10° NNE
STARLINK-78 4.2 18:59:00 10° WNW 19:02:52 43° N 19:03:43 37° NE
STARLINK-1012 4.0 19:01:07 10° WNW 19:04:21 37° N 19:04:37 36° NNE
STARLINK-1037 4.3 19:00:33 10° W 19:04:33 46° N 19:05:48 34° NE
STARLINK-57 4.2 19:00:45 10° WNW 19:04:38 43° N 19:05:24 38° NE
Cosmos 44 Rocket 4.2 19:00:09 10° NW 19:04:40 45° WSW 19:08:48 12° S
Cosmos 2195 Rocket 4.5 18:58:44 10° N 19:04:46 56° ENE 19:08:27 24° SE
Cosmos 1602 4.4 19:00:58 10° SSW 19:04:46 55° WNW 19:08:35 10° N
USA 186 2.4 19:05:54 39° NNW 19:05:54 39° NNW 19:07:54 10° NNW
STARLINK-1056 3.6 19:01:55 10° WSW 19:06:04 80° NNW 19:07:06 49° NE
STARLINK-49 4.2 19:02:18 10° WNW 19:06:11 43° N 19:06:53 39° NE
SJ 16-02 2.6 19:02:05 10° NW 19:06:14 40° WSW 19:10:20 10° S
NOSS 3-2 (A) 4.0 18:59:28 10° NW 19:06:46 66° NE 19:10:56 31° ESE
STARLINK-48 3.3 19:03:17 10° WNW 19:07:12 81° NNE 19:07:38 68° E
Cosmos 841 Rocket 3.4 19:02:30 10° S 19:07:34 64° ESE 19:12:43 10° NNE
STARLINK-27 4.2 19:03:57 10° WNW 19:07:50 43° N 19:08:28 40° NE
Cosmos 1763 Rocket 3.6 19:02:47 10° SSW 19:08:01 76° WNW 19:13:21 10° NNE
STARLINK-1026 4.0 19:05:33 10° WNW 19:08:48 38° N 19:08:53 37° N
STARLINK-1023 4.1 19:05:52 10° WNW 19:08:53 36° N 19:08:53 36° N
STARLINK-74 4.2 19:05:38 10° WNW 19:09:30 44° N 19:10:04 41° NNE
STARLINK-1059 4.4 19:05:38 10° W 19:09:38 45° N 19:10:40 37° NNE
ARGOS 3.1 19:04:37 10° SSE 19:10:02 86° ENE 19:15:31 10° NNW
Cosmos 2298 Rocket 4.0 19:04:55 10° NNW 19:10:16 65° ENE 19:12:02 41° SE
Resurs 01 Rocket 2.7 19:11:23 29° NE 19:11:23 29° NE 19:14:19 10° N
NOSS 3-2 (C) 4.2 19:03:25 10° NW 19:10:32 54° NE 19:13:51 34° E
STARLINK-1054 3.6 19:06:53 10° WSW 19:11:01 76° NNW 19:11:52 55° NE
STARLINK-1013 4.1 19:07:48 10° WNW 19:11:03 38° N 19:11:03 38° N
STARLINK-39 4.1 19:07:16 10° WNW 19:11:09 44° N 19:11:38 42° NNE
STARLINK-26 3.1 19:08:58 10° WNW 19:12:15 76° NNW 19:12:15 76° NNW
STARLINK-31 4.1 19:08:58 10° WNW 19:12:51 44° N 19:13:16 43° NNE
STARLINK-61 3.7 19:09:22 10° WNW 19:13:13 53° NNE 19:13:23 53° NNE
STARLINK-1009 4.1 19:10:02 10° WNW 19:13:12 38° N 19:13:12 38° N
Cosmos 1869 Rocket 4.2 19:10:09 10° SSW 19:14:27 57° WNW 19:18:47 10° N
STARLINK-1057 4.4 19:10:39 10° W 19:14:39 44° N 19:15:28 39° NNE
Cosmos 2208 Rocket 3.9 19:09:18 10° SSW 19:14:42 80° ESE 19:20:03 10° NNE
STARLINK-69 4.1 19:10:49 10° WNW 19:14:43 46° N 19:15:02 44° NNE
ARGOS Delta rocket 3.5 19:13:10 39° SSE 19:14:47 79° ENE 19:19:19 10° N
Meteor 1-11 Rocket 3.8 19:10:04 10° SSE 19:15:23 48° E 19:20:40 10° NNE
SPOT 3 Rocket 3.4 19:13:10 34° SE 19:15:24 70° ENE 19:20:37 10° N
STARLINK-1015 4.1 19:12:18 10° WNW 19:15:23 38° N 19:15:23 38° N
STARLINK-1062 3.7 19:11:53 10° WSW 19:16:00 73° NNW 19:16:39 59° NE
STARLINK-21 4.1 19:12:18 10° WNW 19:16:12 45° N 19:16:28 44° NNE
STARLINK-45 4.1 19:14:11 10° WNW 19:18:05 46° N 19:18:15 46° NNE
CENTAUR R/B 3.4 19:11:56 10° NW 19:19:30 53° NE 19:22:39 37° E
STARLINK-1034 4.3 19:15:39 10° W 19:19:38 44° N 19:20:13 41° NNE
STARLINK-70 4.1 19:15:45 10° WNW 19:19:39 46° N 19:19:45 46° NNE
STARLINK-1014 4.3 19:17:26 10° WNW 19:20:28 37° N 19:20:28 37° N
STARLINK-1053 3.7 19:16:53 10° WSW 19:21:01 69° NNW 19:21:26 63° NNE
STARLINK-76 4.1 19:17:16 10° WNW 19:21:11 46° N 19:21:13 46° NNE
Cosmos 389 Rocket 4.1 19:18:03 10° N 19:19:48 25° N 19:19:48 25° N
STARLINK-23 4.1 19:18:56 10° WNW 19:22:49 47° N 19:22:49 47° N
STARLINK-80 3.7 19:19:29 10° WNW 19:23:11 58° SW 19:23:11 58° SW
STARLINK-32 4.1 19:20:34 10° WNW 19:24:23 47° N 19:24:23 47° N
STARLINK-1068 4.3 19:20:40 10° WNW 19:24:38 43° N 19:25:00 42° NNE
CZ-2C R/B 3.4 19:19:21 10° S 19:25:09 75° WSW 19:30:48 10° NNW
STARLINK-1061 3.7 19:21:51 10° WSW 19:25:59 66° NNW 19:26:12 65° N
STARLINK-40 4.1 19:22:14 10° WNW 19:25:59 47° N 19:25:59 47° N
Cosmos 2150 Rocket 4.0 19:21:34 10° NNW 19:27:01 81° ENE 19:28:22 52° SE
STARLINK-44 4.2 19:23:54 10° WNW 19:27:35 47° N 19:27:35 47° N
Meteor 2-9 4.5 19:22:57 10° S 19:28:20 89° W 19:33:44 10° NNE
Cosmos 1570 Rocket 4.3 19:23:50 10° SSW 19:29:03 69° WNW 19:34:22 10° NNE
STARLINK-37 4.2 19:25:41 10° WNW 19:29:16 48° N 19:29:16 48° N
STARLINK-64 4.2 19:26:06 10° WNW 19:28:51 43° NNW 19:28:51 43° NNW
STARLINK-33 4.5 19:26:33 10° WNW 19:28:41 36° NW 19:28:41 36° NW
SJ-6B 3.2 19:29:20 51° SW 19:29:53 57° W 19:33:39 10° NNW
STARLINK-1067 3.8 19:26:52 10° WSW 19:30:59 63° NNW 19:31:00 63° NNW
STARLINK-36 4.2 19:27:12 10° WNW 19:30:44 47° N 19:30:44 47° N
Okean 3 3.9 19:28:02 10° NNW 19:32:12 60° W 19:33:29 40° SSW
Cosmos 1125 Rocket 3.7 19:26:58 10° NNW 19:32:01 55° NE 19:32:01 55° NE
Ariane Rocket 4.4 19:28:12 10° SSW 19:32:55 37° W 19:37:39 10° NNW
STARLINK-68 4.2 19:29:04 10° WNW 19:32:31 47° NNW 19:32:31 47° NNW
Cosmos 540 Rocket 3.3 19:29:00 10° SSW 19:34:08 88° WNW 19:39:20 10° NNE
ATLAS 3B R/B 3.2 19:28:07 10° NW 19:34:23 40° NE 19:35:31 37° ENE
STARLINK-63 4.3 19:30:37 10° WNW 19:34:01 46° NNW 19:34:01 46° NNW
STARLINK-1060 4.5 19:30:41 10° WNW 19:34:34 42° N 19:34:34 42° N
STARLINK-1058 4.0 19:31:51 10° W 19:35:46 60° NW 19:35:46 60° NW
STARLINK-35 4.3 19:32:10 10° WNW 19:35:31 45° NNW 19:35:31 45° NNW
STARLINK-51 4.4 19:33:50 10° WNW 19:37:06 45° NNW 19:37:06 45° NNW
Cosmos 1627 Rocket 4.3 19:32:11 10° N 19:38:25 87° E 19:41:01 37° S
STARLINK-30 4.4 19:35:30 10° WNW 19:38:42 44° NNW 19:38:42 44° NNW
STARLINK-1043 4.2 19:36:51 10° W 19:40:33 55° NW 19:40:33 55° NW
STARLINK-72 4.5 19:37:10 10° WNW 19:40:18 43° NNW 19:40:18 43° NNW
Meteor 1-13 Rocket 4.4 19:36:00 10° NNW 19:41:52 75° W 19:44:37 32° S
Cosmos 1066 Rocket 4.4 19:36:38 10° N 19:41:59 57° NE 19:41:59 57° NE
SL-08 RB Rocket 4.0 19:42:33 53° SW 19:43:16 62° WSW 19:47:44 10° NNW
APEX 4.3 19:40:00 10° SW 19:45:08 73° WNW 19:51:36 10° NNE
STARLINK-1065 4.4 19:41:41 10° W 19:45:09 50° NW 19:45:09 50° NW
Cosmos 2297 Rocket 2.1 19:40:28 10° NNW 19:46:11 86° WSW 19:46:50 71° SSE
CZ-2C R/B 3.8 19:42:22 10° N 19:47:02 75° WNW 19:51:45 10° SSW
Cosmos 2026 Rocket 4.0 19:50:11 10° NNW 19:56:21 75° W 19:58:21 44° S
ATLAS 2AS CENTAUR R/B 4.2 19:50:35 10° S 19:53:45 25° S 19:53:45 25° S
Cosmos 2227 Rocket 2.3 19:59:38 10° NNW 20:05:17 71° WSW 20:05:17 71° WSW
Meteor 1-23 Rocket 4.3 20:01:54 10° NNW 20:07:09 75° NW 20:07:09 75° NW
USA 238 DEB 4.0 20:00:36 10° NW 20:07:42 65° SW 20:09:20 52° S
USA 238 4.0 20:00:42 10° NW 20:07:49 66° SW 20:09:24 53° S
H-2A R/B 4.0 20:06:05 10° SSW 20:10:39 28° W 20:15:18 10° NW
Cosmos 2082 4.0 20:05:44 10° NNW 20:10:31 62° NNW 20:10:31 62° NNW
Lacrosse 5 rocket 3.3 20:21:22 10° WNW 20:23:51 30° WNW 20:23:51 30° WNW
Cosmos 1655 Rocket 4.3 20:22:13 10° N 20:27:24 61° N 20:27:24 61° N
Lacrosse 5 3.4 20:31:35 10° W 20:34:52 34° WNW 20:34:52 34° WNW
CZ-2C R/B 4.3 20:36:11 10° N 20:38:39 26° N 20:38:39 26° N
USA 234 3.6 20:42:41 58° NNW 20:42:41 58° NNW 20:48:15 10° NW
Cosmos 2263 Rocket 3.9 20:38:54 10° NNW 20:41:27 24° N 20:41:27 24° N
Resurs 01 Rocket 4.1 20:48:56 20° NW 20:48:56 20° NW 20:50:44 10° NW
CENTAUR R/B 3.5 21:02:42 10° NW 21:09:51 56° WSW 21:09:51 56° WSW
ATLAS 3B R/B 3.8 21:18:47 10° NW 21:22:47 38° WNW 21:22:47 38° WNW
